Flag for Switzerland Weather past 2 weeks in Schaffhausen, Schaffhausen, Switzerland

Now
62 °F

Overcast.


Feels Like: 62 °F
Forecast: 35 / 54 °F
Wind: 5 mph from Northwest

Location: Zurich-Kloten

Current Time: Apr 27, 2015 at 12:31:45 PM

Latest Report: Apr 27, 2015 at 11:00 AM


Visibility: 16 mi

Pressure: 29.57 "Hg

Humidity: 69%

Dew point: 52 °F

Location of SchaffhausenLocation

Historic Weather in Schaffhausen — Graph

°F

Schaffhausen temperature yesterday

Maximum temperature yesterday: 69 °F (at 5:00 PM)
Minimum temperature yesterday: 49 °F (at 7:00 AM)
Average temperature yesterday: 59 °F

Past Weeks' High & Low Weather Summary

 TemperatureHumidityPressure
High74 °F (Apr 15, 4:00 PM)97% (Apr 27, 3:00 AM)30.50 "Hg (Apr 27, 3:00 AM)
Low33 °F (Apr 19, 7:00 AM)20% (Apr 22, 7:00 PM)29.57 "Hg (Apr 27, 11:00 AM)
Average54 °F60%30.11 "Hg
* Reported Apr 12 11:00 AM — Apr 27 11:00 AM, Schaffhausen, Weather by CustomWeather, © 2015

Note: Actual official high and low records may vary slightly from our data, if they occured in-between our weather recording intervals... More about our weather records

Advertising

Schaffhausen weather history for previous 24 hours

 ConditionsComfort  
Time TempWeatherWind HumidityBarometerVisibility
11:00 AM
Mon, Apr 27
62 °FOvercast.5 mph69%29.57 "Hg16 mi
10:00 AM58 °FCool.2 mph75%29.59 "HgN/A
9:00 AM55 °FCool.1 mph86%29.60 "HgN/A
8:00 AM52 °FOvercast.2 mph93%29.61 "Hg12 mi
7:00 AM49 °FCool.2 mph94%29.62 "HgN/A
6:00 AM49 °FCool.6 mph94%29.62 "HgN/A
5:00 AM49 °FPassing clouds.3 mph94%29.63 "Hg19 mi
4:00 AM50 °FCool.3 mph94%29.64 "HgN/A
3:00 AM49 °FCool.2 mph97%29.65 "HgN/A
2:00 AM49 °FPassing clouds.2 mph95%29.65 "Hg25 mi
1:00 AM53 °FCool.1 mph92%29.66 "HgN/A
12:00 AM53 °FCool.3 mph94%29.66 "HgN/A
11:00 PM
Sun, Apr 26
58 °FPassing clouds.3 mph81%29.65 "Hg25 mi
10:00 PM58 °FCool.7 mph84%29.66 "HgN/A
9:00 PM62 °FCool.3 mph69%29.66 "HgN/A
8:00 PM65 °FOvercast.8 mph56%29.64 "Hg25 mi
7:00 PM66 °FMild.5 mph54%29.63 "HgN/A
6:00 PM68 °FMild.7 mph50%29.64 "HgN/A
5:00 PM69 °FPartly sunny.3 mph49%29.66 "Hg28 mi
4:00 PM65 °FMild.1 mph53%29.70 "HgN/A
3:00 PM66 °FMild.3 mph52%29.73 "HgN/A
2:00 PM65 °FPartly sunny.1 mph54%29.76 "Hg28 mi
1:00 PM62 °FRefreshingly cool.3 mph58%29.80 "HgN/A
12:00 PM60 °FCool.6 mph65%29.83 "HgN/A
Weather by CustomWeather, © 2015

See weather overviewHow to use our weather pages